Time,TemperatureF,DewpointF,PressureIn,WindDirection,WindDirectionDegrees,WindSpeedMPH,WindSpeedGustMPH,Humidity,HourlyPrecipIn,Conditions,Clouds,dailyrainin,SolarRadiationWatts/m^2,SoftwareType,DateUTC
2013-10-13 00:02:00,52.3,46.0,30.06,SW,223,0.0,3.0,79,0.00,,,0.00,0.0,meteohub,2013-10-13 07:02:00,
2013-10-13 00:07:00,52.3,46.0,30.06,ESE,116,0.0,3.0,79,0.00,,,0.00,0.0,meteohub,2013-10-13 07:07:00,
2013-10-13 00:12:00,52.3,46.0,30.06,ESE,116,0.0,3.0,79,0.00,,,0.00,0.0,meteohub,2013-10-13 07:12:00,
2013-10-13 00:17:00,52.3,46.0,30.06,ESE,116,0.0,2.0,79,0.00,,,0.00,0.0,meteohub,2013-10-13 07:17:00,
2013-10-13 00:22:00,52.3,46.0,30.06,ESE,116,0.0,2.0,79,0.00,,,0.00,0.0,meteohub,2013-10-13 07:22:00,
2013-10-13 00:27:00,52.3,46.0,30.06,ESE,116,0.0,1.0,79,0.00,,,0.00,0.0,meteohub,2013-10-13 07:27:00,
2013-10-13 00:32:00,52.2,45.9,30.07,ESE,116,0.0,1.0,79,0.00,,,0.00,0.0,meteohub,2013-10-13 07:32:00,
2013-10-13 00:37:00,52.0,46.0,30.06,SE,125,0.0,1.0,80,0.00,,,0.00,0.0,meteohub,2013-10-13 07:37:00,
2013-10-13 00:42:00,51.8,46.2,30.06,SSW,196,0.0,1.0,81,0.00,,,0.00,0.0,meteohub,2013-10-13 07:42:00,
2013-10-13 00:47:00,51.6,46.0,30.06,SSW,207,0.0,3.0,81,0.00,,,0.00,0.0,meteohub,2013-10-13 07:47:00,
2013-10-13 00:52:00,51.4,45.9,30.06,SSW,207,0.0,3.0,81,0.00,,,0.00,0.0,meteohub,2013-10-13 07:52:00,
2013-10-13 00:57:00,51.4,46.2,30.06,SSW,207,0.0,2.0,82,0.00,,,0.00,0.0,meteohub,2013-10-13 07:57:00,
2013-10-13 01:02:00,51.3,46.0,30.06,SW,214,0.0,2.0,82,0.00,,,0.00,0.0,meteohub,2013-10-13 08:02:00,
2013-10-13 01:07:00,51.3,46.2,30.06,SW,215,0.0,3.0,83,0.00,,,0.00,0.0,meteohub,2013-10-13 08:07:00,
2013-10-13 01:12:00,51.3,46.2,30.06,SW,221,2.0,3.0,83,0.00,,,0.00,0.0,meteohub,2013-10-13 08:12:00,
2013-10-13 01:17:00,51.3,46.2,30.06,SW,225,1.0,4.0,83,0.00,,,0.00,0.0,meteohub,2013-10-13 08:17:00,
2013-10-13 01:22:00,51.1,46.0,30.06,SW,227,2.0,4.0,83,0.00,,,0.00,0.0,meteohub,2013-10-13 08:22:00,
2013-10-13 01:27:00,51.1,46.0,30.06,SSW,212,2.0,4.0,83,0.00,,,0.00,0.0,meteohub,2013-10-13 08:27:00,
2013-10-13 01:32:00,51.1,46.4,30.06,SW,215,0.0,4.0,84,0.00,,,0.00,0.0,meteohub,2013-10-13 08:32:00,
2013-10-13 01:37:00,51.1,46.4,30.06,SW,219,1.0,4.0,84,0.00,,,0.00,0.0,meteohub,2013-10-13 08:37:00,
2013-10-13 01:42:00,51.1,46.4,30.06,SW,227,1.0,5.0,84,0.00,,,0.00,0.0,meteohub,2013-10-13 08:42:00,
2013-10-13 01:47:00,51.1,46.4,30.06,SW,221,1.0,5.0,84,0.00,,,0.00,0.0,meteohub,2013-10-13 08:47:00,
2013-10-13 01:52:00,50.9,46.2,30.06,SW,231,0.0,5.0,84,0.00,,,0.00,0.0,meteohub,2013-10-13 08:52:00,
2013-10-13 01:57:00,50.9,46.2,30.06,SW,220,0.0,4.0,84,0.00,,,0.00,0.0,meteohub,2013-10-13 08:57:00,
2013-10-13 02:02:00,50.9,46.2,30.06,SW,221,0.0,4.0,84,0.00,,,0.00,0.0,meteohub,2013-10-13 09:02:00,
2013-10-13 02:07:00,50.9,46.2,30.06,SSW,209,0.0,4.0,84,0.00,,,0.00,0.0,meteohub,2013-10-13 09:07:00,
2013-10-13 02:12:00,51.1,46.8,30.06,SW,222,0.0,3.0,85,0.00,,,0.00,0.0,meteohub,2013-10-13 09:12:00,
2013-10-13 02:17:00,51.1,46.4,30.07,SW,222,0.0,5.0,84,0.00,,,0.00,0.0,meteohub,2013-10-13 09:17:00,
2013-10-13 02:22:00,51.1,46.8,30.06,WSW,242,0.0,5.0,85,0.00,,,0.00,0.0,meteohub,2013-10-13 09:22:00,
2013-10-13 02:27:00,51.1,46.4,30.06,SW,232,0.0,5.0,84,0.00,,,0.00,0.0,meteohub,2013-10-13 09:27:00,
2013-10-13 02:32:00,50.9,46.2,30.06,SW,232,0.0,2.0,84,0.00,,,0.00,0.0,meteohub,2013-10-13 09:32:00,
2013-10-13 02:37:00,50.9,46.2,30.06,SW,232,0.0,2.0,84,0.00,,,0.00,0.0,meteohub,2013-10-13 09:37:00,
2013-10-13 02:42:00,50.9,46.2,30.06,SW,232,0.0,2.0,84,0.00,,,0.00,0.0,meteohub,2013-10-13 09:42:00,
2013-10-13 02:47:00,50.9,46.2,30.06,SW,232,0.0,1.0,84,0.00,,,0.00,0.0,meteohub,2013-10-13 09:47:00,
2013-10-13 02:52:00,50.9,46.2,30.06,SW,232,0.0,1.0,84,0.00,,,0.00,0.0,meteohub,2013-10-13 09:52:00,
2013-10-13 02:57:00,50.9,46.2,30.06,SW,232,0.0,1.0,84,0.00,,,0.00,0.0,meteohub,2013-10-13 09:57:00,
2013-10-13 03:02:00,50.9,46.2,30.06,SW,232,0.0,1.0,84,0.00,,,0.00,0.0,meteohub,2013-10-13 10:02:00,
2013-10-13 03:07:00,50.7,46.0,30.06,SW,232,0.0,1.0,84,0.00,,,0.00,0.0,meteohub,2013-10-13 10:07:00,
2013-10-13 03:12:00,50.7,46.0,30.06,SW,232,0.0,1.0,84,0.00,,,0.00,0.0,meteohub,2013-10-13 10:12:00,
2013-10-13 03:17:00,50.5,45.9,30.06,SW,232,0.0,1.0,84,0.00,,,0.00,0.0,meteohub,2013-10-13 10:17:00,
2013-10-13 03:22:00,50.5,45.9,30.06,SW,232,0.0,1.0,84,0.00,,,0.00,0.0,meteohub,2013-10-13 10:22:00,
2013-10-13 03:27:00,50.5,46.2,30.06,SW,232,0.0,1.0,85,0.00,,,0.00,0.0,meteohub,2013-10-13 10:27:00,
2013-10-13 03:32:00,50.4,46.0,30.07,SW,232,0.0,0.0,85,0.00,,,0.00,0.0,meteohub,2013-10-13 10:32:00,
2013-10-13 03:37:00,50.4,45.7,30.06,SW,232,0.0,0.0,84,0.00,,,0.00,0.0,meteohub,2013-10-13 10:37:00,
2013-10-13 03:42:00,50.2,45.5,30.06,SW,232,0.0,0.0,84,0.00,,,0.00,0.0,meteohub,2013-10-13 10:42:00,
2013-10-13 03:47:00,50.0,45.7,30.06,SW,232,0.0,0.0,85,0.00,,,0.00,0.0,meteohub,2013-10-13 10:47:00,
2013-10-13 03:52:00,49.8,45.5,30.07,SW,232,0.0,1.0,85,0.00,,,0.00,0.0,meteohub,2013-10-13 10:52:00,
2013-10-13 03:57:00,49.6,45.3,30.07,SW,232,0.0,1.0,85,0.00,,,0.00,0.0,meteohub,2013-10-13 10:57:00,
2013-10-13 04:02:00,49.5,45.1,30.07,SW,232,0.0,1.0,85,0.00,,,0.00,0.0,meteohub,2013-10-13 11:02:00,
2013-10-13 04:07:00,49.5,45.1,30.07,SW,232,0.0,1.0,85,0.00,,,0.00,0.0,meteohub,2013-10-13 11:07:00,
2013-10-13 04:12:00,49.3,45.3,30.07,SW,232,0.0,0.0,86,0.00,,,0.00,0.0,meteohub,2013-10-13 11:12:00,
2013-10-13 04:17:00,49.3,45.3,30.07,SW,232,0.0,0.0,86,0.00,,,0.00,0.0,meteohub,2013-10-13 11:17:00,
2013-10-13 04:22:00,49.3,45.3,30.08,SW,232,0.0,0.0,86,0.00,,,0.00,0.0,meteohub,2013-10-13 11:22:00,
2013-10-13 04:27:00,49.3,45.3,30.08,SW,232,0.0,0.0,86,0.00,,,0.00,0.0,meteohub,2013-10-13 11:27:00,
2013-10-13 04:32:00,49.3,45.3,30.08,SW,232,0.0,0.0,86,0.00,,,0.00,0.0,meteohub,2013-10-13 11:32:00,
2013-10-13 04:37:00,49.3,45.3,30.08,SW,232,0.0,0.0,86,0.00,,,0.00,0.0,meteohub,2013-10-13 11:37:00,
2013-10-13 04:42:00,49.3,45.3,30.08,SW,232,0.0,0.0,86,0.00,,,0.00,0.0,meteohub,2013-10-13 11:42:00,
2013-10-13 04:47:00,49.3,45.3,30.08,SW,232,0.0,0.0,86,0.00,,,0.00,0.0,meteohub,2013-10-13 11:47:00,
2013-10-13 04:52:00,49.1,45.1,30.08,SW,232,0.0,0.0,86,0.00,,,0.00,0.0,meteohub,2013-10-13 11:52:00,
2013-10-13 04:57:00,49.1,45.1,30.08,SW,232,0.0,0.0,86,0.00,,,0.00,0.0,meteohub,2013-10-13 11:57:00,
2013-10-13 05:02:00,48.9,45.0,30.09,SW,232,0.0,0.0,86,0.00,,,0.00,0.0,meteohub,2013-10-13 12:02:00,
2013-10-13 05:07:00,48.9,45.0,30.09,SW,232,0.0,0.0,86,0.00,,,0.00,0.0,meteohub,2013-10-13 12:07:00,
2013-10-13 05:12:00,48.7,44.8,30.09,SW,232,0.0,0.0,86,0.00,,,0.00,0.0,meteohub,2013-10-13 12:12:00,
2013-10-13 05:17:00,48.7,44.8,30.09,SW,232,0.0,0.0,86,0.00,,,0.00,0.0,meteohub,2013-10-13 12:17:00,
2013-10-13 05:22:00,48.7,44.8,30.09,SW,232,0.0,0.0,86,0.00,,,0.00,0.0,meteohub,2013-10-13 12:22:00,
2013-10-13 05:27:00,48.6,44.6,30.09,SW,232,0.0,0.0,86,0.00,,,0.00,0.0,meteohub,2013-10-13 12:27:00,
2013-10-13 05:32:00,48.4,44.4,30.09,SW,232,0.0,0.0,86,0.00,,,0.00,0.0,meteohub,2013-10-13 12:32:00,
2013-10-13 05:37:00,48.4,44.4,30.09,SW,232,0.0,0.0,86,0.00,,,0.00,0.0,meteohub,2013-10-13 12:37:00,
2013-10-13 05:42:00,48.2,44.2,30.09,SW,232,0.0,0.0,86,0.00,,,0.00,0.0,meteohub,2013-10-13 12:42:00,
2013-10-13 05:47:00,48.0,44.1,30.09,SW,232,0.0,0.0,86,0.00,,,0.00,0.0,meteohub,2013-10-13 12:47:00,
2013-10-13 05:52:00,48.0,44.1,30.09,SW,232,0.0,0.0,86,0.00,,,0.00,0.0,meteohub,2013-10-13 12:52:00,
2013-10-13 05:57:00,47.8,43.9,30.09,SW,232,0.0,0.0,86,0.00,,,0.00,0.0,meteohub,2013-10-13 12:57:00,
2013-10-13 06:02:00,47.7,44.1,30.10,SW,232,0.0,0.0,87,0.00,,,0.00,0.0,meteohub,2013-10-13 13:02:00,
2013-10-13 06:07:00,47.7,44.1,30.10,SW,232,0.0,0.0,87,0.00,,,0.00,0.0,meteohub,2013-10-13 13:07:00,
2013-10-13 06:12:00,47.7,44.1,30.10,SW,232,0.0,0.0,87,0.00,,,0.00,0.0,meteohub,2013-10-13 13:12:00,
2013-10-13 06:17:00,47.5,43.9,30.10,SW,232,0.0,0.0,87,0.00,,,0.00,0.0,meteohub,2013-10-13 13:17:00,
2013-10-13 06:22:00,47.5,43.9,30.10,SW,232,0.0,0.0,87,0.00,,,0.00,0.0,meteohub,2013-10-13 13:22:00,
2013-10-13 06:27:00,47.3,43.7,30.11,SW,232,0.0,0.0,87,0.00,,,0.00,0.0,meteohub,2013-10-13 13:27:00,
2013-10-13 06:32:00,47.1,43.5,30.10,SW,232,0.0,0.0,87,0.00,,,0.00,0.0,meteohub,2013-10-13 13:32:00,
2013-10-13 06:37:00,46.9,43.3,30.11,SW,232,0.0,0.0,87,0.00,,,0.00,0.0,meteohub,2013-10-13 13:37:00,
2013-10-13 06:42:00,46.9,43.3,30.11,SW,232,0.0,0.0,87,0.00,,,0.00,0.0,meteohub,2013-10-13 13:42:00,
2013-10-13 06:47:00,46.9,43.5,30.11,SW,232,0.0,0.0,88,0.00,,,0.00,0.0,meteohub,2013-10-13 13:47:00,
2013-10-13 06:52:00,46.8,43.3,30.11,SW,232,0.0,0.0,88,0.00,,,0.00,0.0,meteohub,2013-10-13 13:52:00,
2013-10-13 06:57:00,46.8,43.3,30.11,SW,232,0.0,0.0,88,0.00,,,0.00,0.0,meteohub,2013-10-13 13:57:00,
2013-10-13 07:02:00,46.8,43.3,30.12,SW,232,0.0,0.0,88,0.00,,,0.00,0.0,meteohub,2013-10-13 14:02:00,
2013-10-13 07:07:00,46.6,43.2,30.12,SW,232,0.0,0.0,88,0.00,,,0.00,0.0,meteohub,2013-10-13 14:07:00,
2013-10-13 07:12:00,46.6,43.2,30.12,SW,232,0.0,0.0,88,0.00,,,0.00,0.0,meteohub,2013-10-13 14:12:00,
2013-10-13 07:17:00,46.6,43.2,30.12,SW,232,0.0,0.0,88,0.00,,,0.00,0.0,meteohub,2013-10-13 14:17:00,
2013-10-13 07:22:00,46.6,43.2,30.12,SW,232,0.0,0.0,88,0.00,,,0.00,0.0,meteohub,2013-10-13 14:22:00,
2013-10-13 07:27:00,46.4,43.0,30.12,SW,232,0.0,0.0,88,0.00,,,0.00,5.0,meteohub,2013-10-13 14:27:00,
2013-10-13 07:32:00,46.4,43.3,30.12,SW,232,0.0,1.0,89,0.00,,,0.00,7.0,meteohub,2013-10-13 14:32:00,
2013-10-13 07:37:00,46.4,43.3,30.12,SW,232,0.0,1.0,89,0.00,,,0.00,7.0,meteohub,2013-10-13 14:37:00,
2013-10-13 07:42:00,46.4,43.3,30.12,SW,227,0.0,2.0,89,0.00,,,0.00,9.0,meteohub,2013-10-13 14:42:00,
2013-10-13 07:47:00,46.4,43.3,30.12,SW,227,0.0,2.0,89,0.00,,,0.00,11.0,meteohub,2013-10-13 14:47:00,
2013-10-13 07:52:00,46.4,43.3,30.12,SW,227,0.0,2.0,89,0.00,,,0.00,11.0,meteohub,2013-10-13 14:52:00,
2013-10-13 07:57:00,46.2,43.2,30.13,SW,227,0.0,1.0,89,0.00,,,0.00,12.0,meteohub,2013-10-13 14:57:00,
2013-10-13 08:02:00,46.2,43.5,30.13,SW,227,0.0,1.0,90,0.00,,,0.00,12.0,meteohub,2013-10-13 15:02:00,
2013-10-13 08:07:00,46.2,43.5,30.13,SW,227,0.0,1.0,90,0.00,,,0.00,14.0,meteohub,2013-10-13 15:07:00,
2013-10-13 08:12:00,46.4,43.7,30.13,SW,227,0.0,1.0,90,0.00,,,0.00,14.0,meteohub,2013-10-13 15:12:00,
2013-10-13 08:17:00,46.4,43.7,30.14,SW,227,0.0,1.0,90,0.00,,,0.00,14.0,meteohub,2013-10-13 15:17:00,
2013-10-13 08:22:00,46.4,43.7,30.14,SW,227,0.0,0.0,90,0.00,,,0.00,16.0,meteohub,2013-10-13 15:22:00,
2013-10-13 08:27:00,46.6,43.9,30.14,SW,227,0.0,0.0,90,0.00,,,0.00,16.0,meteohub,2013-10-13 15:27:00,
2013-10-13 08:32:00,46.6,43.9,30.14,SW,227,0.0,0.0,90,0.00,,,0.00,16.0,meteohub,2013-10-13 15:32:00,
2013-10-13 08:37:00,46.8,44.2,30.14,SW,227,0.0,0.0,91,0.00,,,0.00,18.0,meteohub,2013-10-13 15:37:00,
2013-10-13 08:42:00,46.8,44.2,30.14,SW,227,0.0,0.0,91,0.00,,,0.00,18.0,meteohub,2013-10-13 15:42:00,
2013-10-13 08:47:00,46.9,44.4,30.14,SW,227,0.0,0.0,91,0.00,,,0.00,18.0,meteohub,2013-10-13 15:47:00,
2013-10-13 08:52:00,47.1,44.6,30.14,SW,227,0.0,0.0,91,0.00,,,0.00,19.0,meteohub,2013-10-13 15:52:00,
2013-10-13 08:57:00,47.5,45.3,30.14,SW,227,0.0,0.0,92,0.00,,,0.00,19.0,meteohub,2013-10-13 15:57:00,
2013-10-13 09:02:00,48.0,45.9,30.15,SW,227,0.0,0.0,92,0.00,,,0.00,19.0,meteohub,2013-10-13 16:02:00,
2013-10-13 09:07:00,48.6,46.4,30.15,SW,227,0.0,0.0,92,0.00,,,0.00,19.0,meteohub,2013-10-13 16:07:00,
2013-10-13 09:12:00,48.9,46.8,30.15,SW,227,0.0,1.0,92,0.00,,,0.00,21.0,meteohub,2013-10-13 16:12:00,
2013-10-13 09:17:00,49.5,47.3,30.15,SW,227,0.0,1.0,92,0.00,,,0.00,21.0,meteohub,2013-10-13 16:17:00,
2013-10-13 09:22:00,49.8,47.7,30.15,SW,227,0.0,1.0,92,0.00,,,0.00,21.0,meteohub,2013-10-13 16:22:00,
2013-10-13 09:27:00,50.5,48.6,30.15,SW,227,0.0,1.0,93,0.00,,,0.00,23.0,meteohub,2013-10-13 16:27:00,
2013-10-13 09:32:00,51.1,48.9,30.15,SW,227,0.0,1.0,92,0.00,,,0.00,23.0,meteohub,2013-10-13 16:32:00,
2013-10-13 09:37:00,51.4,49.3,30.15,SW,227,0.0,2.0,92,0.00,,,0.00,23.0,meteohub,2013-10-13 16:37:00,
2013-10-13 09:42:00,52.0,49.6,30.16,SW,227,0.0,2.0,92,0.00,,,0.00,25.0,meteohub,2013-10-13 16:42:00,
2013-10-13 09:47:00,52.3,49.8,30.15,SW,227,2.0,2.0,91,0.00,,,0.00,25.0,meteohub,2013-10-13 16:47:00,
2013-10-13 09:52:00,52.9,49.6,30.15,SW,227,1.0,2.0,89,0.00,,,0.00,26.0,meteohub,2013-10-13 16:52:00,
2013-10-13 09:57:00,53.4,49.3,30.16,SW,227,1.0,2.0,86,0.00,,,0.00,26.0,meteohub,2013-10-13 16:57:00,
2013-10-13 10:02:00,54.1,49.5,30.16,SW,227,1.0,3.0,84,0.00,,,0.00,28.0,meteohub,2013-10-13 17:02:00,
2013-10-13 10:07:00,54.7,49.3,30.16,SW,227,0.0,3.0,82,0.00,,,0.00,30.0,meteohub,2013-10-13 17:07:00,
2013-10-13 10:12:00,55.0,48.9,30.16,SW,227,0.0,3.0,80,0.00,,,0.00,32.0,meteohub,2013-10-13 17:12:00,
2013-10-13 10:17:00,55.8,49.3,30.16,SW,223,1.0,3.0,79,0.00,,,0.00,32.0,meteohub,2013-10-13 17:17:00,
2013-10-13 10:22:00,56.1,48.4,30.16,SW,223,0.0,3.0,75,0.00,,,0.00,33.0,meteohub,2013-10-13 17:22:00,
2013-10-13 10:27:00,56.7,47.7,30.16,SW,223,0.0,3.0,72,0.00,,,0.00,35.0,meteohub,2013-10-13 17:27:00,
2013-10-13 10:32:00,57.4,48.0,30.16,SW,223,0.0,2.0,71,0.00,,,0.00,37.0,meteohub,2013-10-13 17:32:00,
2013-10-13 10:37:00,58.3,47.8,30.16,SW,223,0.0,1.0,68,0.00,,,0.00,46.0,meteohub,2013-10-13 17:37:00,
2013-10-13 10:42:00,58.8,47.1,30.16,SW,223,0.0,1.0,65,0.00,,,0.00,105.0,meteohub,2013-10-13 17:42:00,
2013-10-13 10:47:00,59.5,46.0,30.16,East,84,0.0,3.0,61,0.00,,,0.00,67.0,meteohub,2013-10-13 17:47:00,
2013-10-13 10:52:00,60.3,45.5,30.16,East,84,0.0,3.0,58,0.00,,,0.00,114.0,meteohub,2013-10-13 17:52:00,
2013-10-13 10:57:00,60.6,44.4,30.16,ENE,78,1.0,3.0,55,0.00,,,0.00,543.0,meteohub,2013-10-13 17:57:00,
2013-10-13 11:02:00,61.2,44.8,30.16,WSW,257,6.0,6.0,55,0.00,,,0.00,554.0,meteohub,2013-10-13 18:02:00,
2013-10-13 11:07:00,61.7,44.4,30.16,SSW,213,1.0,6.0,53,0.00,,,0.00,564.0,meteohub,2013-10-13 18:07:00,
2013-10-13 11:12:00,62.2,44.4,30.16,WSW,244,0.0,6.0,52,0.00,,,0.00,575.0,meteohub,2013-10-13 18:12:00,
2013-10-13 11:17:00,63.0,45.1,30.16,ESE,113,0.0,6.0,52,0.00,,,0.00,584.0,meteohub,2013-10-13 18:17:00,
2013-10-13 11:22:00,63.5,44.1,30.16,ENE,67,1.0,6.0,49,0.00,,,0.00,592.0,meteohub,2013-10-13 18:22:00,
2013-10-13 11:27:00,63.9,44.2,30.16,ENE,67,1.0,3.0,49,0.00,,,0.00,601.0,meteohub,2013-10-13 18:27:00,
2013-10-13 11:32:00,64.2,43.5,30.16,ESE,114,2.0,3.0,47,0.00,,,0.00,606.0,meteohub,2013-10-13 18:32:00,
2013-10-13 11:37:00,64.6,43.3,30.16,NW,324,3.0,3.0,46,0.00,,,0.00,617.0,meteohub,2013-10-13 18:37:00,
2013-10-13 11:42:00,64.9,43.2,30.16,ENE,76,2.0,4.0,45,0.00,,,0.00,624.0,meteohub,2013-10-13 18:42:00,
2013-10-13 11:47:00,65.1,42.6,30.16,ENE,75,0.0,4.0,44,0.00,,,0.00,631.0,meteohub,2013-10-13 18:47:00,
2013-10-13 11:52:00,65.3,42.8,30.16,East,80,2.0,5.0,44,0.00,,,0.00,638.0,meteohub,2013-10-13 18:52:00,
2013-10-13 11:57:00,65.7,42.6,30.16,ENE,71,0.0,5.0,43,0.00,,,0.00,645.0,meteohub,2013-10-13 18:57:00,
2013-10-13 12:02:00,65.8,42.8,30.16,ENE,75,0.0,5.0,43,0.00,,,0.00,649.0,meteohub,2013-10-13 19:02:00,
2013-10-13 12:07:00,66.4,43.2,30.16,NE,40,0.0,5.0,43,0.00,,,0.00,654.0,meteohub,2013-10-13 19:07:00,
2013-10-13 12:12:00,66.6,42.8,30.16,ENE,69,1.0,3.0,42,0.00,,,0.00,661.0,meteohub,2013-10-13 19:12:00,
2013-10-13 12:17:00,66.7,42.3,30.16,East,84,3.0,3.0,41,0.00,,,0.00,664.0,meteohub,2013-10-13 19:17:00,
2013-10-13 12:22:00,66.7,41.7,30.16,ENE,70,1.0,5.0,40,0.00,,,0.00,670.0,meteohub,2013-10-13 19:22:00,
2013-10-13 12:27:00,66.7,42.3,30.16,ENE,70,0.0,5.0,41,0.00,,,0.00,673.0,meteohub,2013-10-13 19:27:00,
2013-10-13 12:32:00,67.3,42.1,30.15,ENE,64,2.0,5.0,40,0.00,,,0.00,675.0,meteohub,2013-10-13 19:32:00,
2013-10-13 12:37:00,67.5,42.3,30.15,East,79,1.0,5.0,40,0.00,,,0.00,679.0,meteohub,2013-10-13 19:37:00,
2013-10-13 12:42:00,67.6,41.7,30.15,ENE,70,1.0,5.0,39,0.00,,,0.00,680.0,meteohub,2013-10-13 19:42:00,
2013-10-13 12:47:00,67.8,41.9,30.15,ENE,75,2.0,5.0,39,0.00,,,0.00,684.0,meteohub,2013-10-13 19:47:00,
2013-10-13 12:52:00,67.8,41.9,30.15,East,84,2.0,3.0,39,0.00,,,0.00,687.0,meteohub,2013-10-13 19:52:00,
2013-10-13 12:57:00,68.0,42.1,30.15,East,79,2.0,4.0,39,0.00,,,0.00,687.0,meteohub,2013-10-13 19:57:00,
2013-10-13 13:02:00,68.2,41.5,30.15,WNW,292,0.0,6.0,38,0.00,,,0.00,689.0,meteohub,2013-10-13 20:02:00,
2013-10-13 13:07:00,68.7,41.4,30.14,SW,235,0.0,6.0,37,0.00,,,0.00,687.0,meteohub,2013-10-13 20:07:00,
2013-10-13 13:12:00,69.3,41.2,30.14,ENE,72,3.0,6.0,36,0.00,,,0.00,689.0,meteohub,2013-10-13 20:12:00,
2013-10-13 13:17:00,69.3,40.5,30.14,East,92,1.0,4.0,35,0.00,,,0.00,689.0,meteohub,2013-10-13 20:17:00,
2013-10-13 13:22:00,69.4,40.6,30.14,ENE,67,0.0,4.0,35,0.00,,,0.00,689.0,meteohub,2013-10-13 20:22:00,
2013-10-13 13:27:00,69.4,40.6,30.14,East,80,2.0,4.0,35,0.00,,,0.00,687.0,meteohub,2013-10-13 20:27:00,
2013-10-13 13:32:00,69.4,40.6,30.14,NW,309,2.0,4.0,35,0.00,,,0.00,686.0,meteohub,2013-10-13 20:32:00,
2013-10-13 13:37:00,69.6,39.9,30.14,ENE,69,0.0,4.0,34,0.00,,,0.00,684.0,meteohub,2013-10-13 20:37:00,
2013-10-13 13:42:00,70.0,40.3,30.14,ESE,119,0.0,3.0,34,0.00,,,0.00,680.0,meteohub,2013-10-13 20:42:00,
2013-10-13 13:47:00,70.3,40.6,30.14,East,99,2.0,6.0,34,0.00,,,0.00,675.0,meteohub,2013-10-13 20:47:00,
2013-10-13 13:52:00,70.9,39.6,30.13,East,88,0.0,6.0,32,0.00,,,0.00,673.0,meteohub,2013-10-13 20:52:00,
2013-10-13 13:57:00,71.1,39.7,30.13,ENE,63,4.0,6.0,32,0.00,,,0.00,670.0,meteohub,2013-10-13 20:57:00,
2013-10-13 14:02:00,71.1,38.8,30.13,West,274,2.0,6.0,31,0.00,,,0.00,668.0,meteohub,2013-10-13 21:02:00,
2013-10-13 14:07:00,71.4,39.2,30.13,ENE,75,2.0,6.0,31,0.00,,,0.00,659.0,meteohub,2013-10-13 21:07:00,
2013-10-13 14:12:00,72.0,38.8,30.13,ENE,72,1.0,6.0,30,0.00,,,0.00,659.0,meteohub,2013-10-13 21:12:00,
2013-10-13 14:17:00,72.0,38.8,30.13,West,261,3.0,5.0,30,0.00,,,0.00,652.0,meteohub,2013-10-13 21:17:00,
2013-10-13 14:22:00,72.1,38.1,30.13,ENE,67,2.0,5.0,29,0.00,,,0.00,647.0,meteohub,2013-10-13 21:22:00,
2013-10-13 14:27:00,72.1,39.0,30.12,ENE,78,0.0,5.0,30,0.00,,,0.00,640.0,meteohub,2013-10-13 21:27:00,
2013-10-13 14:32:00,72.1,39.0,30.12,ENE,67,0.0,6.0,30,0.00,,,0.00,633.0,meteohub,2013-10-13 21:32:00,
2013-10-13 14:37:00,72.3,38.3,30.12,ENE,63,3.0,7.0,29,0.00,,,0.00,628.0,meteohub,2013-10-13 21:37:00,
2013-10-13 14:43:00,72.3,39.2,30.12,East,87,1.0,7.0,30,0.00,,,0.00,617.0,meteohub,2013-10-13 21:43:00,
2013-10-13 14:48:00,72.9,37.8,30.12,ENE,64,0.0,5.0,28,0.00,,,0.00,610.0,meteohub,2013-10-13 21:48:00,
2013-10-13 14:53:00,73.0,38.8,30.12,ENE,72,3.0,5.0,29,0.00,,,0.00,603.0,meteohub,2013-10-13 21:53:00,
2013-10-13 14:58:00,72.9,38.7,30.12,ESE,107,0.0,4.0,29,0.00,,,0.00,594.0,meteohub,2013-10-13 21:58:00,
2013-10-13 15:03:00,72.7,38.7,30.12,ENE,78,1.0,4.0,29,0.00,,,0.00,585.0,meteohub,2013-10-13 22:03:00,
2013-10-13 15:08:00,72.9,38.7,30.12,NE,52,3.0,4.0,29,0.00,,,0.00,573.0,meteohub,2013-10-13 22:08:00,
2013-10-13 15:13:00,72.9,38.7,30.12,East,85,1.0,5.0,29,0.00,,,0.00,566.0,meteohub,2013-10-13 22:13:00,
2013-10-13 15:18:00,72.9,38.7,30.12,ENE,76,0.0,5.0,29,0.00,,,0.00,554.0,meteohub,2013-10-13 22:18:00,
2013-10-13 15:23:00,73.0,37.9,30.12,ENE,61,3.0,6.0,28,0.00,,,0.00,543.0,meteohub,2013-10-13 22:23:00,
2013-10-13 15:28:00,73.0,38.8,30.12,ENE,76,1.0,6.0,29,0.00,,,0.00,533.0,meteohub,2013-10-13 22:28:00,
2013-10-13 15:33:00,73.2,39.0,30.12,ENE,69,1.0,6.0,29,0.00,,,0.00,520.0,meteohub,2013-10-13 22:33:00,
2013-10-13 15:38:00,73.2,39.0,30.12,ENE,66,2.0,5.0,29,0.00,,,0.00,510.0,meteohub,2013-10-13 22:38:00,
2013-10-13 15:43:00,73.2,38.1,30.12,ENE,71,7.0,7.0,28,0.00,,,0.00,497.0,meteohub,2013-10-13 22:43:00,
2013-10-13 15:48:00,73.4,38.3,30.12,ENE,75,0.0,7.0,28,0.00,,,0.00,485.0,meteohub,2013-10-13 22:48:00,
2013-10-13 15:53:00,73.8,38.7,30.12,ENE,73,1.0,7.0,28,0.00,,,0.00,471.0,meteohub,2013-10-13 22:53:00,
2013-10-13 15:58:00,73.9,38.8,30.12,ENE,67,0.0,7.0,28,0.00,,,0.00,459.0,meteohub,2013-10-13 22:58:00,
2013-10-13 16:03:00,73.8,38.7,30.12,East,87,0.0,5.0,28,0.00,,,0.00,445.0,meteohub,2013-10-13 23:03:00,
2013-10-13 16:09:00,73.6,38.5,30.12,East,86,0.0,5.0,28,0.00,,,0.00,429.0,meteohub,2013-10-13 23:09:00,
2013-10-13 16:14:00,73.9,38.8,30.12,NW,325,2.0,5.0,28,0.00,,,0.00,417.0,meteohub,2013-10-13 23:14:00,
2013-10-13 16:19:00,73.9,38.8,30.12,East,86,0.0,5.0,28,0.00,,,0.00,401.0,meteohub,2013-10-13 23:19:00,
2013-10-13 16:24:00,74.3,39.0,30.12,ENE,76,0.0,4.0,28,0.00,,,0.00,388.0,meteohub,2013-10-13 23:24:00,
2013-10-13 16:29:00,74.8,39.6,30.12,SW,229,1.0,4.0,28,0.00,,,0.00,374.0,meteohub,2013-10-13 23:29:00,
2013-10-13 16:34:00,74.7,38.5,30.13,SSE,163,0.0,5.0,27,0.00,,,0.00,359.0,meteohub,2013-10-13 23:34:00,
2013-10-13 16:39:00,74.7,39.4,30.13,SSE,161,0.0,5.0,28,0.00,,,0.00,345.0,meteohub,2013-10-13 23:39:00,
2013-10-13 16:44:00,75.0,40.6,30.13,SSW,211,0.0,5.0,29,0.00,,,0.00,329.0,meteohub,2013-10-13 23:44:00,
2013-10-13 16:49:00,75.4,41.0,30.13,SW,234,4.0,4.0,29,0.00,,,0.00,315.0,meteohub,2013-10-13 23:49:00,
2013-10-13 16:54:00,74.8,40.5,30.13,WSW,240,1.0,7.0,29,0.00,,,0.00,297.0,meteohub,2013-10-13 23:54:00,
2013-10-13 16:59:00,74.7,41.2,30.13,SSW,207,2.0,9.0,30,0.00,,,0.00,283.0,meteohub,2013-10-13 23:59:00,
2013-10-13 17:04:00,74.7,40.3,30.13,West,279,1.0,9.0,29,0.00,,,0.00,267.0,meteohub,2013-10-14 00:04:00,
2013-10-13 17:09:00,74.5,41.0,30.13,SW,225,1.0,9.0,30,0.00,,,0.00,248.0,meteohub,2013-10-14 00:09:00,
2013-10-13 17:14:00,74.1,41.5,30.14,West,268,3.0,8.0,31,0.00,,,0.00,230.0,meteohub,2013-10-14 00:14:00,
2013-10-13 17:19:00,73.6,41.0,30.14,SW,227,5.0,8.0,31,0.00,,,0.00,211.0,meteohub,2013-10-14 00:19:00,
2013-10-13 17:24:00,72.7,41.2,30.14,WSW,238,7.0,7.0,32,0.00,,,0.00,193.0,meteohub,2013-10-14 00:24:00,
2013-10-13 17:30:00,71.6,41.0,30.14,SW,236,5.0,9.0,33,0.00,,,0.00,176.0,meteohub,2013-10-14 00:30:00,
2013-10-13 17:35:00,71.2,41.4,30.14,WSW,242,4.0,9.0,34,0.00,,,0.00,156.0,meteohub,2013-10-14 00:35:00,
2013-10-13 17:40:00,70.9,41.2,30.14,SW,215,5.0,8.0,34,0.00,,,0.00,137.0,meteohub,2013-10-14 00:40:00,
2013-10-13 17:45:00,70.3,40.6,30.14,WNW,303,3.0,7.0,34,0.00,,,0.00,120.0,meteohub,2013-10-14 00:45:00,
2013-10-13 17:50:00,70.0,41.7,30.14,SW,233,5.0,7.0,36,0.00,,,0.00,98.0,meteohub,2013-10-14 00:50:00,
2013-10-13 17:55:00,69.4,41.4,30.14,WSW,240,3.0,7.0,36,0.00,,,0.00,81.0,meteohub,2013-10-14 00:55:00,
2013-10-13 18:00:00,68.9,41.5,30.14,SW,232,3.0,7.0,37,0.00,,,0.00,69.0,meteohub,2013-10-14 01:00:00,
2013-10-13 18:05:00,68.4,42.4,30.14,SW,234,2.0,7.0,39,0.00,,,0.00,35.0,meteohub,2013-10-14 01:05:00,
2013-10-13 18:10:00,67.6,41.7,30.14,WSW,237,3.0,6.0,39,0.00,,,0.00,28.0,meteohub,2013-10-14 01:10:00,
2013-10-13 18:17:00,66.6,41.5,30.14,WSW,254,3.0,7.0,40,0.00,,,0.00,18.0,meteohub,2013-10-14 01:17:00,
2013-10-13 18:22:00,65.7,41.4,30.15,WSW,238,1.0,7.0,41,0.00,,,0.00,7.0,meteohub,2013-10-14 01:22:00,
2013-10-13 18:27:00,65.1,40.8,30.15,SW,224,0.0,7.0,41,0.00,,,0.00,5.0,meteohub,2013-10-14 01:27:00,
2013-10-13 18:32:00,64.9,41.4,30.15,SW,224,0.0,4.0,42,0.00,,,0.00,0.0,meteohub,2013-10-14 01:32:00,
2013-10-13 18:37:00,64.4,41.4,30.15,SW,225,0.0,4.0,43,0.00,,,0.00,0.0,meteohub,2013-10-14 01:37:00,
2013-10-13 18:42:00,64.0,41.2,30.15,SW,225,1.0,2.0,43,0.00,,,0.00,0.0,meteohub,2013-10-14 01:42:00,
2013-10-13 18:47:00,63.7,40.8,30.15,SW,227,0.0,2.0,43,0.00,,,0.00,0.0,meteohub,2013-10-14 01:47:00,
2013-10-13 18:53:00,63.1,40.8,30.15,SW,227,0.0,2.0,44,0.00,,,0.00,0.0,meteohub,2013-10-14 01:53:00,
2013-10-13 18:58:00,62.8,40.5,30.15,SW,227,0.0,2.0,44,0.00,,,0.00,0.0,meteohub,2013-10-14 01:58:00,
2013-10-13 19:03:00,62.4,40.8,30.16,SW,227,0.0,2.0,45,0.00,,,0.00,0.0,meteohub,2013-10-14 02:03:00,
2013-10-13 19:08:00,62.2,40.1,30.15,SW,227,1.0,1.0,44,0.00,,,0.00,0.0,meteohub,2013-10-14 02:08:00,
2013-10-13 19:13:00,61.9,40.3,30.16,SW,227,0.0,1.0,45,0.00,,,0.00,0.0,meteohub,2013-10-14 02:13:00,
2013-10-13 19:18:00,61.5,39.9,30.16,SW,225,0.0,1.0,45,0.00,,,0.00,0.0,meteohub,2013-10-14 02:18:00,
2013-10-13 19:23:00,61.3,39.7,30.16,SW,225,0.0,1.0,45,0.00,,,0.00,0.0,meteohub,2013-10-14 02:23:00,
2013-10-13 19:28:00,61.2,39.7,30.16,SW,225,0.0,1.0,45,0.00,,,0.00,0.0,meteohub,2013-10-14 02:28:00,
2013-10-13 19:33:00,61.0,40.1,30.16,SW,225,0.0,1.0,46,0.00,,,0.00,0.0,meteohub,2013-10-14 02:33:00,
2013-10-13 19:38:00,60.8,39.9,30.16,SW,225,0.0,1.0,46,0.00,,,0.00,0.0,meteohub,2013-10-14 02:38:00,
2013-10-13 19:43:00,60.6,40.3,30.16,SW,225,0.0,1.0,47,0.00,,,0.00,0.0,meteohub,2013-10-14 02:43:00,
2013-10-13 19:48:00,60.3,39.9,30.16,SW,225,0.0,1.0,47,0.00,,,0.00,0.0,meteohub,2013-10-14 02:48:00,
2013-10-13 19:53:00,59.9,40.1,30.16,SW,226,0.0,1.0,48,0.00,,,0.00,0.0,meteohub,2013-10-14 02:53:00,
2013-10-13 19:59:00,59.7,39.9,30.16,SW,226,0.0,1.0,48,0.00,,,0.00,0.0,meteohub,2013-10-14 02:59:00,
2013-10-13 20:04:00,59.5,39.9,30.17,SW,226,0.0,1.0,48,0.00,,,0.00,0.0,meteohub,2013-10-14 03:04:00,
2013-10-13 20:09:00,59.2,40.1,30.17,SW,226,0.0,1.0,49,0.00,,,0.00,0.0,meteohub,2013-10-14 03:09:00,
2013-10-13 20:14:00,58.8,39.7,30.17,SW,226,0.0,0.0,49,0.00,,,0.00,0.0,meteohub,2013-10-14 03:14:00,
2013-10-13 20:19:00,58.5,39.9,30.17,SW,226,0.0,0.0,50,0.00,,,0.00,0.0,meteohub,2013-10-14 03:19:00,
2013-10-13 20:24:00,58.3,40.3,30.17,SW,226,0.0,0.0,51,0.00,,,0.00,0.0,meteohub,2013-10-14 03:24:00,
2013-10-13 20:29:00,57.9,39.9,30.17,SW,226,0.0,0.0,51,0.00,,,0.00,0.0,meteohub,2013-10-14 03:29:00,
2013-10-13 20:34:00,57.7,39.7,30.17,SW,226,0.0,0.0,51,0.00,,,0.00,0.0,meteohub,2013-10-14 03:34:00,
2013-10-13 20:39:00,57.4,39.9,30.17,SW,226,0.0,0.0,52,0.00,,,0.00,0.0,meteohub,2013-10-14 03:39:00,
2013-10-13 20:44:00,57.0,40.1,30.18,SW,226,0.0,0.0,53,0.00,,,0.00,0.0,meteohub,2013-10-14 03:44:00,
2013-10-13 20:49:00,56.8,39.9,30.18,SW,226,0.0,0.0,53,0.00,,,0.00,0.0,meteohub,2013-10-14 03:49:00,
2013-10-13 20:54:00,56.5,40.1,30.18,SW,226,0.0,0.0,54,0.00,,,0.00,0.0,meteohub,2013-10-14 03:54:00,
2013-10-13 20:59:00,56.1,40.1,30.18,SW,226,0.0,0.0,55,0.00,,,0.00,0.0,meteohub,2013-10-14 03:59:00,
2013-10-13 21:01:00,56.1,40.1,30.18,SW,226,0.0,0.0,55,0.00,,,0.00,0.0,meteohub,2013-10-14 04:01:00,
2013-10-13 21:02:00,56.1,40.1,30.18,SW,226,0.0,0.0,55,0.00,,,0.00,0.0,meteohub,2013-10-14 04:02:00,
2013-10-13 21:03:00,56.1,40.1,30.18,SW,226,0.0,0.0,55,0.00,,,0.00,0.0,meteohub,2013-10-14 04:03:00,
2013-10-13 21:06:00,55.9,39.9,30.18,SW,226,0.0,0.0,55,0.00,,,0.00,0.0,meteohub,2013-10-14 04:06:00,
2013-10-13 21:07:00,55.9,39.9,30.18,SW,226,0.0,0.0,55,0.00,,,0.00,0.0,meteohub,2013-10-14 04:07:00,
2013-10-13 21:12:00,55.8,39.9,30.19,SW,226,0.0,0.0,55,0.00,,,0.00,0.0,meteohub,2013-10-14 04:12:00,
2013-10-13 21:17:00,55.6,40.1,30.19,SW,226,0.0,0.0,56,0.00,,,0.00,0.0,meteohub,2013-10-14 04:17:00,
2013-10-13 21:22:00,55.4,40.5,30.19,SW,226,0.0,0.0,57,0.00,,,0.00,0.0,meteohub,2013-10-14 04:22:00,
2013-10-13 21:27:00,55.4,40.5,30.19,SW,226,0.0,0.0,57,0.00,,,0.00,0.0,meteohub,2013-10-14 04:27:00,
2013-10-13 21:32:00,55.4,40.5,30.19,SW,226,0.0,0.0,57,0.00,,,0.00,0.0,meteohub,2013-10-14 04:32:00,
2013-10-13 21:37:00,55.4,40.5,30.19,SW,226,0.0,0.0,57,0.00,,,0.00,0.0,meteohub,2013-10-14 04:37:00,
2013-10-13 21:42:00,55.4,40.5,30.19,SW,226,0.0,0.0,57,0.00,,,0.00,0.0,meteohub,2013-10-14 04:42:00,
2013-10-13 21:47:00,55.4,40.5,30.19,SW,226,0.0,0.0,57,0.00,,,0.00,0.0,meteohub,2013-10-14 04:47:00,
2013-10-13 21:53:00,55.2,40.6,30.19,SW,226,0.0,0.0,58,0.00,,,0.00,0.0,meteohub,2013-10-14 04:53:00,
2013-10-13 21:58:00,55.2,40.6,30.19,SW,226,0.0,0.0,58,0.00,,,0.00,0.0,meteohub,2013-10-14 04:58:00,
2013-10-13 22:03:00,55.0,40.5,30.19,SW,226,0.0,0.0,58,0.00,,,0.00,0.0,meteohub,2013-10-14 05:03:00,
2013-10-13 22:08:00,54.9,40.8,30.19,SW,226,0.0,0.0,59,0.00,,,0.00,0.0,meteohub,2013-10-14 05:08:00,
2013-10-13 22:13:00,54.7,40.6,30.20,SW,226,0.0,0.0,59,0.00,,,0.00,0.0,meteohub,2013-10-14 05:13:00,
2013-10-13 22:18:00,54.3,40.8,30.20,SW,226,0.0,0.0,60,0.00,,,0.00,0.0,meteohub,2013-10-14 05:18:00,
2013-10-13 22:23:00,54.1,40.6,30.20,SW,226,0.0,0.0,60,0.00,,,0.00,0.0,meteohub,2013-10-14 05:23:00,
2013-10-13 22:28:00,54.0,40.5,30.20,SW,226,0.0,0.0,60,0.00,,,0.00,0.0,meteohub,2013-10-14 05:28:00,
2013-10-13 22:33:00,54.0,40.8,30.20,SW,226,0.0,1.0,61,0.00,,,0.00,0.0,meteohub,2013-10-14 05:33:00,
2013-10-13 22:38:00,53.8,40.6,30.20,SW,226,0.0,1.0,61,0.00,,,0.00,0.0,meteohub,2013-10-14 05:38:00,
2013-10-13 22:43:00,53.4,40.6,30.20,SW,226,0.0,1.0,62,0.00,,,0.00,0.0,meteohub,2013-10-14 05:43:00,
2013-10-13 22:48:00,53.2,40.6,30.20,SW,226,0.0,1.0,62,0.00,,,0.00,0.0,meteohub,2013-10-14 05:48:00,
2013-10-13 22:53:00,53.2,40.6,30.20,SW,226,0.0,0.0,62,0.00,,,0.00,0.0,meteohub,2013-10-14 05:53:00,
2013-10-13 22:58:00,53.1,40.8,30.20,SW,226,0.0,0.0,63,0.00,,,0.00,0.0,meteohub,2013-10-14 05:58:00,
2013-10-13 23:04:00,52.9,40.6,30.20,SW,226,0.0,0.0,63,0.00,,,0.00,0.0,meteohub,2013-10-14 06:04:00,
2013-10-13 23:09:00,52.9,40.6,30.20,SW,226,0.0,0.0,63,0.00,,,0.00,0.0,meteohub,2013-10-14 06:09:00,
2013-10-13 23:15:00,52.9,40.3,30.20,SW,226,0.0,0.0,62,0.00,,,0.00,0.0,meteohub,2013-10-14 06:15:00,
2013-10-13 23:20:00,52.9,40.3,30.20,SW,226,0.0,0.0,62,0.00,,,0.00,0.0,meteohub,2013-10-14 06:20:00,
2013-10-13 23:25:00,52.9,40.6,30.20,SW,226,0.0,0.0,63,0.00,,,0.00,0.0,meteohub,2013-10-14 06:25:00,
2013-10-13 23:30:00,52.9,40.6,30.20,SW,226,0.0,0.0,63,0.00,,,0.00,0.0,meteohub,2013-10-14 06:30:00,
2013-10-13 23:35:00,52.5,40.3,30.20,SW,226,0.0,0.0,63,0.00,,,0.00,0.0,meteohub,2013-10-14 06:35:00,
2013-10-13 23:40:00,52.3,40.1,30.20,SW,226,0.0,0.0,63,0.00,,,0.00,0.0,meteohub,2013-10-14 06:40:00,
2013-10-13 23:45:00,52.2,39.9,30.20,SW,226,0.0,0.0,63,0.00,,,0.00,0.0,meteohub,2013-10-14 06:45:00,
2013-10-13 23:50:00,52.0,40.1,30.20,SW,226,0.0,0.0,64,0.00,,,0.00,0.0,meteohub,2013-10-14 06:50:00,
2013-10-13 23:55:00,51.8,39.6,30.20,SW,226,0.0,0.0,63,0.00,,,0.00,0.0,meteohub,2013-10-14 06:55:00,